• In Latvia
  • List of Countries
  • For 7 days
  • Water Temperature
  • Satellite Maps
  • Weather Map
  • Weather Widgets
  • user-avatar
    Login

    Hourly Weather Neuquén

    Today, 20 February, Tuesday

    Time Temperature Precipitation Wind Pressure Humidity
    00:00 +20°C° 1.7 mm 7 mps 731 mmHg 54%
    01:00 +19°C° 1.7 mm 6 mps 731 mmHg 64%
    02:00 +19°C° 0.7 mm 6 mps 731 mmHg 63%
    03:00 +19°C° 0.7 mm 6 mps 731 mmHg 62%
    04:00 +19°C° 0.7 mm 5 mps 731 mmHg 61%
    05:00 +19°C° 0 mm 6 mps 732 mmHg 57%
    06:00 +20°C° 0 mm 6 mps 732 mmHg 52%
    07:00 +20°C° 0 mm 7 mps 733 mmHg 47%
    08:00 +22°C° 0 mm 7 mps 733 mmHg 40%
    09:00 +23°C° 0 mm 7 mps 733 mmHg 33%
    10:00 +24°C° 0 mm 7 mps 733 mmHg 26%
    11:00 +26°C° 0 mm 7 mps 733 mmHg 22%
    12:00 +28°C° 0 mm 7 mps 733 mmHg 19%
    13:00 +29°C° 0 mm 7 mps 733 mmHg 16%
    14:00 +29°C° 0 mm 6 mps 733 mmHg 14%
    15:00 +30°C° 0 mm 6 mps 732 mmHg 13%
    16:00 +30°C° 0 mm 5 mps 732 mmHg 12%
    17:00 +29°C° 0 mm 5 mps 732 mmHg 13%
    18:00 +29°C° 0 mm 4 mps 732 mmHg 13%
    19:00 +28°C° 0 mm 3 mps 733 mmHg 14%
    20:00 +27°C° 0 mm 3 mps 733 mmHg 14%
    21:00 +27°C° 0 mm 3 mps 733 mmHg 15%
    22:00 +26°C° 0 mm 2 mps 734 mmHg 15%
    23:00 +26°C° 0 mm 3 mps 734 mmHg 18%

    Tomorrow, 21 February, Wednesday

    Time Temperature Precipitation Wind Pressure Humidity
    00:00 +25°C° 0 mm 3 mps 734 mmHg 20%
    01:00 +25°C° 0 mm 4 mps 734 mmHg 22%
    02:00 +24°C° 0 mm 3 mps 733 mmHg 26%
    03:00 +24°C° 0 mm 3 mps 733 mmHg 30%
    04:00 +23°C° 0 mm 2 mps 733 mmHg 34%
    05:00 +24°C° 0 mm 3 mps 733 mmHg 33%
    06:00 +25°C° 0 mm 3 mps 733 mmHg 32%
    07:00 +26°C° 0 mm 4 mps 733 mmHg 30%
    08:00 +28°C° 0 mm 4 mps 733 mmHg 28%
    09:00 +30°C° 0 mm 5 mps 733 mmHg 25%
    10:00 +32°C° 0 mm 5 mps 733 mmHg 23%
    11:00 +33°C° 0 mm 6 mps 732 mmHg 20%
    12:00 +34°C° 0 mm 6 mps 732 mmHg 17%
    13:00 +35°C° 0 mm 7 mps 731 mmHg 14%
    14:00 +35°C° 0 mm 7 mps 731 mmHg 13%
    15:00 +35°C° 0 mm 7 mps 730 mmHg 13%
    16:00 +35°C° 0 mm 6 mps 730 mmHg 12%
    17:00 +34°C° 0 mm 7 mps 731 mmHg 16%
    18:00 +32°C° 0 mm 8 mps 731 mmHg 20%
    19:00 +31°C° 0 mm 9 mps 731 mmHg 23%
    20:00 +29°C° 0 mm 9 mps 732 mmHg 28%
    21:00 +28°C° 0 mm 8 mps 732 mmHg 32%
    22:00 +27°C° 0 mm 8 mps 733 mmHg 36%
    23:00 +26°C° 0 mm 8 mps 733 mmHg 36%

    Day after tomorrow, 22 February, Thursday

    Time Temperature Precipitation Wind Pressure Humidity
    00:00 +26°C° 0 mm 7 mps 733 mmHg 37%
    01:00 +26°C° 0 mm 7 mps 733 mmHg 37%
    02:00 +24°C° 0 mm 6 mps 733 mmHg 37%
    03:00 +24°C° 0 mm 6 mps 733 mmHg 37%
    04:00 +23°C° 0 mm 5 mps 733 mmHg 37%
    05:00 +25°C° 0 mm 5 mps 734 mmHg 35%
    06:00 +24°C° 0 mm 6 mps 734 mmHg 34%
    07:00 +24°C° 0 mm 6 mps 735 mmHg 32%
    08:00 +26°C° 0 mm 7 mps 735 mmHg 30%
    09:00 +26°C° 0 mm 7 mps 734 mmHg 27%
    10:00 +27°C° 0 mm 8 mps 734 mmHg 25%
    11:00 +28°C° 0 mm 8 mps 734 mmHg 24%
    12:00 +28°C° 0 mm 8 mps 734 mmHg 23%
    13:00 +29°C° 0 mm 8 mps 733 mmHg 23%
    14:00 +28°C° 0 mm 9 mps 733 mmHg 25%
    15:00 +27°C° 0 mm 10 mps 733 mmHg 27%
    16:00 +26°C° 0 mm 11 mps 733 mmHg 29%
    17:00 +23°C° 0.2 mm 11 mps 734 mmHg 37%
    18:00 +21°C° 0.2 mm 11 mps 735 mmHg 45%
    19:00 +18°C° 0.2 mm 11 mps 736 mmHg 53%
    20:00 +17°C° 0.5 mm 9 mps 736 mmHg 57%
    21:00 +17°C° 0.5 mm 8 mps 737 mmHg 62%
    22:00 +16°C° 0.5 mm 6 mps 738 mmHg 66%
    23:00 +16°C° 0.2 mm 5 mps 738 mmHg 67%

    23 February, Friday

    Time Temperature Precipitation Wind Pressure Humidity
    00:00 +17°C° 0.2 mm 4 mps 738 mmHg 69%
    01:00 +17°C° 0.2 mm 4 mps 737 mmHg 70%
    02:00 +17°C° 0 mm 4 mps 737 mmHg 70%
    03:00 +17°C° 0 mm 4 mps 737 mmHg 70%
    04:00 +17°C° 0 mm 4 mps 737 mmHg 71%
    05:00 +17°C° 0 mm 3 mps 738 mmHg 68%
    06:00 +17°C° 0 mm 3 mps 738 mmHg 66%
    07:00 +17°C° 0 mm 3 mps 738 mmHg 64%
    08:00 +18°C° 0 mm 3 mps 739 mmHg 57%
    09:00 +20°C° 0 mm 3 mps 739 mmHg 49%
    10:00 +21°C° 0 mm 3 mps 739 mmHg 42%
    11:00 +23°C° 0 mm 2 mps 739 mmHg 38%
    12:00 +24°C° 0 mm 2 mps 738 mmHg 34%
    13:00 +25°C° 0 mm 2 mps 738 mmHg 30%
    14:00 +26°C° 0 mm 2 mps 738 mmHg 28%
    15:00 +26°C° 0 mm 2 mps 737 mmHg 27%
    16:00 +27°C° 0 mm 3 mps 737 mmHg 25%
    17:00 +26°C° 0 mm 3 mps 737 mmHg 25%
    18:00 +26°C° 0 mm 3 mps 737 mmHg 26%
    19:00 +26°C° 0 mm 3 mps 737 mmHg 26%
    20:00 +25°C° 0 mm 3 mps 737 mmHg 28%
    21:00 +25°C° 0 mm 3 mps 737 mmHg 29%
    22:00 +24°C° 0 mm 3 mps 738 mmHg 30%
    23:00 +24°C° 0 mm 3 mps 737 mmHg 31%

    24 February, Saturday

    Time Temperature Precipitation Wind Pressure Humidity
    00:00 +22°C° 0 mm 3 mps 737 mmHg 31%
    01:00 +22°C° 0 mm 3 mps 737 mmHg 32%
    02:00 +21°C° 0 mm 3 mps 737 mmHg 33%
    03:00 +21°C° 0 mm 3 mps 737 mmHg 34%
    04:00 +20°C° 0 mm 3 mps 736 mmHg 36%
    05:00 +21°C° 0 mm 4 mps 737 mmHg 35%
    06:00 +21°C° 0 mm 4 mps 737 mmHg 34%
    07:00 +22°C° 0 mm 4 mps 737 mmHg 33%
    08:00 +23°C° 0 mm 4 mps 737 mmHg 30%
    09:00 +26°C° 0 mm 5 mps 737 mmHg 26%
    10:00 +27°C° 0 mm 5 mps 736 mmHg 23%
    11:00 +28°C° 0 mm 5 mps 736 mmHg 21%
    12:00 +30°C° 0 mm 5 mps 735 mmHg 19%
    13:00 +32°C° 0 mm 5 mps 735 mmHg 18%
    14:00 +32°C° 0 mm 5 mps 734 mmHg 17%
    15:00 +32°C° 0 mm 5 mps 734 mmHg 17%
    16:00 +33°C° 0 mm 4 mps 733 mmHg 17%
    17:00 +32°C° 0 mm 4 mps 733 mmHg 18%
    18:00 +32°C° 0 mm 4 mps 733 mmHg 19%
    19:00 +30°C° 0 mm 4 mps 733 mmHg 21%
    20:00 +29°C° 0 mm 4 mps 734 mmHg 22%
    21:00 +29°C° 0 mm 5 mps 734 mmHg 23%
    22:00 +28°C° 0 mm 6 mps 734 mmHg 24%
    23:00 +27°C° 0 mm 5 mps 734 mmHg 26%

    25 February, Sunday

    Time Temperature Precipitation Wind Pressure Humidity
    00:00 +27°C° 0 mm 5 mps 734 mmHg 27%
    01:00 +26°C° 0 mm 4 mps 734 mmHg 28%
    02:00 +26°C° 0 mm 4 mps 733 mmHg 29%
    03:00 +25°C° 0 mm 4 mps 733 mmHg 30%
    04:00 +25°C° 0 mm 4 mps 733 mmHg 31%
    05:00 +25°C° 0 mm 4 mps 734 mmHg 31%
    06:00 +26°C° 0 mm 4 mps 734 mmHg 31%
    07:00 +27°C° 0 mm 5 mps 734 mmHg 30%
    08:00 +28°C° 0 mm 4 mps 734 mmHg 29%
    09:00 +30°C° 0 mm 4 mps 734 mmHg 27%
    10:00 +33°C° 0 mm 4 mps 734 mmHg 25%
    11:00 +34°C° 0 mm 4 mps 733 mmHg 23%
    12:00 +35°C° 0 mm 4 mps 733 mmHg 22%
    13:00 +36°C° 0 mm 4 mps 732 mmHg 20%
    14:00 +36°C° 0 mm 4 mps 732 mmHg 19%
    15:00 +36°C° 0 mm 4 mps 731 mmHg 19%
    16:00 +37°C° 0 mm 4 mps 731 mmHg 18%
    17:00 +36°C° 0 mm 4 mps 731 mmHg 19%
    18:00 +35°C° 0 mm 4 mps 731 mmHg 19%
    19:00 +34°C° 0 mm 5 mps 731 mmHg 20%
    20:00 +34°C° 0 mm 5 mps 731 mmHg 20%
    21:00 +33°C° 0 mm 6 mps 731 mmHg 20%
    22:00 +32°C° 0 mm 7 mps 731 mmHg 20%
    23:00 +32°C° 0 mm 6 mps 731 mmHg 21%
    Show more